Flag for Israel Weather past 2 weeks in Herzliya, Israel

Now
77 °F

Passing clouds.


Feels Like: 79 °F
Forecast: 71 / 82 °F
Wind: 7 mph from Northwest

Location: Dov Airport

Current Time: Jun 30, 2015 at 11:13:46 PM

Latest Report: Jun 30, 2015 at 9:50 PM


Visibility: N/A

Pressure: 29.95 "Hg

Humidity: 65%

Dew point: 64 °F

Location of HerzliyaLocation

Historic Weather in Herzliya — Graph

°F

Herzliya temperature yesterday

Maximum temperature yesterday: 81 °F (at 11:50 AM)
Minimum temperature yesterday: 72 °F (at 5:50 AM)
Average temperature yesterday: 78 °F

Past Weeks' High & Low Weather Summary

 TemperatureHumidityPressure
High84 °F (Jun 19, 9:50 AM)89% (Jun 17, 10:50 PM)29.95 "Hg (Jun 17, 10:50 PM)
Low72 °F (Jun 16, 5:50 AM)27% (Jun 27, 8:50 PM)29.56 "Hg (Jun 27, 10:50 PM)
Average78 °F67%29.79 "Hg
* Reported Jun 15 9:50 PM — Jun 30 9:50 PM, Herzliya, Weather by CustomWeather, © 2015

Note: Actual official high and low records may vary slightly from our data, if they occured in-between our weather recording intervals... More about our weather records

Advertising

Herzliya weather history for previous 24 hours

 ConditionsComfort  
Time TempWeatherWind HumidityBarometerVisibility
9:50 PM
Tue, Jun 30
77 °FPassing clouds.7 mph65%29.95 "HgN/A
8:50 PM77 °FScattered clouds.7 mph69%29.95 "HgN/A
7:50 PM77 °FScattered clouds.8 mph65%29.95 "HgN/A
6:50 PM79 °FScattered clouds.10 mph61%29.95 "HgN/A
5:50 PM79 °FPassing clouds.10 mph61%29.92 "HgN/A
4:50 PM79 °FPassing clouds.13 mph58%29.92 "HgN/A
3:50 PM81 °FPassing clouds.12 mph62%29.95 "HgN/A
2:50 PM81 °FPassing clouds.12 mph58%29.95 "HgN/A
1:50 PM81 °FPassing clouds.9 mph58%29.95 "HgN/A
12:50 PM81 °FPassing clouds.8 mph54%29.95 "HgN/A
11:50 AM79 °FPassing clouds.7 mph58%29.95 "HgN/A
10:50 AM79 °FPassing clouds.7 mph61%29.95 "HgN/A
9:50 AM79 °FScattered clouds.6 mph61%29.95 "HgN/A
8:50 AM77 °FScattered clouds.2 mph61%29.95 "HgN/A
7:50 AM77 °FPartly sunny.3 mph65%29.92 "HgN/A
6:50 AM73 °FScattered clouds.5 mph74%29.89 "HgN/A
5:50 AM72 °FPassing clouds.2 mph78%29.89 "HgN/A
4:50 AM72 °FPassing clouds.2 mph78%29.89 "HgN/A
4:00 AM72 °FPassing clouds.2 mph78%29.89 "HgN/A
Weather by CustomWeather, © 2015

See weather overviewHow to use our weather pages